Time,TemperatureF,DewpointF,PressureIn,WindDirection,WindDirectionDegrees,WindSpeedMPH,WindSpeedGustMPH,Humidity,HourlyPrecipIn,Conditions,Clouds,dailyrainin,SoftwareType,DateUTC
2013-03-08 00:02:00,39.2,30.9,30.03,WNW,292,5.8,-999.0,72,-99.99,,,0.00,Acu-Link.com,2013-03-08 05:02:00,
2013-03-08 00:17:00,39.4,31.1,30.04,NNE,22,7.3,-999.0,72,-99.99,,,0.00,Acu-Link.com,2013-03-08 05:17:00,
2013-03-08 00:47:00,39.0,32.1,30.04,NNE,22,7.3,-999.0,76,-99.99,,,0.00,Acu-Link.com,2013-03-08 05:47:00,
2013-03-08 01:02:00,38.5,31.9,30.05,NW,315,6.8,-999.0,77,-99.99,,,0.00,Acu-Link.com,2013-03-08 06:02:00,
2013-03-08 01:18:00,38.3,31.7,30.05,ESE,112,5.8,-999.0,77,-99.99,,,0.00,Acu-Link.com,2013-03-08 06:18:00,
2013-03-08 01:33:00,38.5,31.3,30.05,SSW,202,7.3,-999.0,75,-99.99,,,0.00,Acu-Link.com,2013-03-08 06:33:00,
2013-03-08 01:48:00,38.3,31.7,30.05,ESE,112,4.2,-999.0,77,-99.99,,,0.00,Acu-Link.com,2013-03-08 06:48:00,
2013-03-08 02:03:00,38.3,31.7,30.04,NNW,337,6.8,-999.0,77,-99.99,,,0.00,Acu-Link.com,2013-03-08 07:03:00,
2013-03-08 02:18:00,37.9,30.7,30.04,NNE,22,4.2,-999.0,75,-99.99,,,0.00,Acu-Link.com,2013-03-08 07:18:00,
2013-03-08 02:33:00,38.1,31.5,30.03,WNW,292,5.3,-999.0,77,-99.99,,,0.00,Acu-Link.com,2013-03-08 07:33:00,
2013-03-08 02:48:00,37.9,31.0,30.03,NE,45,5.8,-999.0,76,-99.99,,,0.00,Acu-Link.com,2013-03-08 07:48:00,
2013-03-08 03:03:00,37.9,31.0,30.03,North,0,4.2,-999.0,76,-99.99,,,0.00,Acu-Link.com,2013-03-08 08:03:00,
2013-03-08 03:18:00,38.7,26.4,30.01,West,270,13.5,-999.0,61,-99.99,,,0.00,Acu-Link.com,2013-03-08 08:18:00,
2013-03-08 03:34:00,38.5,25.4,29.99,West,270,11.4,-999.0,59,-99.99,,,0.00,Acu-Link.com,2013-03-08 08:34:00,
2013-03-08 03:49:00,37.8,25.2,29.98,WNW,292,10.4,-999.0,60,-99.99,,,0.00,Acu-Link.com,2013-03-08 08:49:00,
2013-03-08 04:04:00,37.2,25.4,29.98,West,270,10.4,-999.0,62,-99.99,,,0.00,Acu-Link.com,2013-03-08 09:04:00,
2013-03-08 04:19:00,37.0,25.2,29.98,West,270,14.5,-999.0,62,-99.99,,,0.00,Acu-Link.com,2013-03-08 09:19:00,
2013-03-08 04:34:00,37.0,24.8,29.98,WNW,292,11.4,-999.0,61,-99.99,,,0.00,Acu-Link.com,2013-03-08 09:34:00,
2013-03-08 04:49:00,36.9,24.3,29.98,WNW,292,9.9,-999.0,60,-99.99,,,0.00,Acu-Link.com,2013-03-08 09:49:00,
2013-03-08 05:05:00,36.5,24.3,29.97,WSW,247,13.5,-999.0,61,-99.99,,,0.00,Acu-Link.com,2013-03-08 10:05:00,
2013-03-08 05:20:00,36.1,23.2,29.98,North,0,13.5,-999.0,59,-99.99,,,0.00,Acu-Link.com,2013-03-08 10:20:00,
2013-03-08 05:35:00,36.1,24.0,29.97,WNW,292,11.9,-999.0,61,-99.99,,,0.00,Acu-Link.com,2013-03-08 10:35:00,
2013-03-08 05:50:00,36.0,23.5,29.98,West,270,14.5,-999.0,60,-99.99,,,0.00,Acu-Link.com,2013-03-08 10:50:00,
2013-03-08 06:05:00,36.0,23.5,29.98,NNW,337,13.5,-999.0,60,-99.99,,,0.00,Acu-Link.com,2013-03-08 11:05:00,
2013-03-08 06:20:00,36.0,23.9,29.98,West,270,11.9,-999.0,61,-99.99,,,0.00,Acu-Link.com,2013-03-08 11:20:00,
2013-03-08 06:35:00,35.8,23.3,29.98,West,270,11.9,-999.0,60,-99.99,,,0.00,Acu-Link.com,2013-03-08 11:35:00,
2013-03-08 06:50:00,35.8,24.1,29.99,WNW,292,11.9,-999.0,62,-99.99,,,0.00,Acu-Link.com,2013-03-08 11:50:00,
2013-03-08 07:05:00,35.8,24.1,29.99,NW,315,12.5,-999.0,62,-99.99,,,0.00,Acu-Link.com,2013-03-08 12:05:00,
2013-03-08 07:21:00,35.8,24.1,29.99,WNW,292,10.9,-999.0,62,-99.99,,,0.00,Acu-Link.com,2013-03-08 12:21:00,
2013-03-08 07:36:00,35.6,24.6,29.99,WNW,292,13.5,-999.0,64,-99.99,,,0.00,Acu-Link.com,2013-03-08 12:36:00,
2013-03-08 07:51:00,35.1,27.3,30.00,SSW,202,6.3,-999.0,73,-99.99,,,0.00,Acu-Link.com,2013-03-08 12:51:00,
2013-03-08 08:06:00,33.8,28.0,30.01,West,270,10.4,-999.0,79,-99.99,,,0.00,Acu-Link.com,2013-03-08 13:06:00,
2013-03-08 08:21:00,33.4,28.2,30.02,West,270,13.5,-999.0,81,-99.99,,,0.00,Acu-Link.com,2013-03-08 13:21:00,
2013-03-08 08:36:00,33.6,28.7,30.02,West,270,11.4,-999.0,82,-99.99,,,0.00,Acu-Link.com,2013-03-08 13:36:00,
2013-03-08 08:51:00,33.8,28.9,30.01,North,0,10.4,-999.0,82,-99.99,,,0.00,Acu-Link.com,2013-03-08 13:51:00,
2013-03-08 09:06:00,33.4,28.5,30.02,NE,45,13.0,-999.0,82,-99.99,,,0.00,Acu-Link.com,2013-03-08 14:06:00,
2013-03-08 09:21:00,33.6,29.3,30.03,WNW,292,13.0,-999.0,84,-99.99,,,0.00,Acu-Link.com,2013-03-08 14:21:00,
2013-03-08 09:37:00,33.8,29.5,30.02,NNW,337,13.0,-999.0,84,-99.99,,,0.00,Acu-Link.com,2013-03-08 14:37:00,
2013-03-08 09:52:00,33.8,29.8,30.01,WNW,292,11.9,-999.0,85,-99.99,,,0.00,Acu-Link.com,2013-03-08 14:52:00,
2013-03-08 10:07:00,34.0,30.3,30.00,West,270,11.4,-999.0,86,-99.99,,,0.01,Acu-Link.com,2013-03-08 15:07:00,
2013-03-08 10:22:00,34.5,30.5,30.01,West,270,13.0,-999.0,85,-99.99,,,0.01,Acu-Link.com,2013-03-08 15:22:00,
2013-03-08 10:37:00,34.7,30.7,30.00,West,270,13.5,-999.0,85,-99.99,,,0.01,Acu-Link.com,2013-03-08 15:37:00,
2013-03-08 10:52:00,34.9,31.1,30.01,North,0,7.8,-999.0,86,-99.99,,,0.01,Acu-Link.com,2013-03-08 15:52:00,
2013-03-08 11:07:00,35.1,31.3,30.01,NNE,22,9.4,-999.0,86,-99.99,,,0.01,Acu-Link.com,2013-03-08 16:07:00,
2013-03-08 11:22:00,35.2,31.4,30.01,West,270,14.0,-999.0,86,-99.99,,,0.02,Acu-Link.com,2013-03-08 16:22:00,
2013-03-08 11:38:00,36.1,31.7,30.01,WNW,292,11.9,-999.0,84,-99.99,,,0.02,Acu-Link.com,2013-03-08 16:38:00,
2013-03-08 11:53:00,36.5,32.1,30.01,West,270,13.5,-999.0,84,-99.99,,,0.02,Acu-Link.com,2013-03-08 16:53:00,
2013-03-08 12:08:00,36.9,32.2,30.01,WNW,292,6.8,-999.0,83,-99.99,,,0.02,Acu-Link.com,2013-03-08 17:08:00,
2013-03-08 12:23:00,37.6,32.9,30.01,WNW,292,5.8,-999.0,83,-99.99,,,0.02,Acu-Link.com,2013-03-08 17:23:00,
2013-03-08 12:38:00,38.1,32.8,30.00,NW,315,8.3,-999.0,81,-99.99,,,0.02,Acu-Link.com,2013-03-08 17:38:00,
2013-03-08 12:53:00,39.6,34.3,30.00,NE,45,6.8,-999.0,81,-99.99,,,0.02,Acu-Link.com,2013-03-08 17:53:00,
2013-03-08 13:08:00,39.9,33.9,29.99,West,270,8.9,-999.0,79,-99.99,,,0.02,Acu-Link.com,2013-03-08 18:08:00,
2013-03-08 13:23:00,41.0,34.4,29.99,East,90,6.3,-999.0,77,-99.99,,,0.02,Acu-Link.com,2013-03-08 18:23:00,
2013-03-08 13:38:00,40.8,33.8,29.99,North,0,4.7,-999.0,76,-99.99,,,0.02,Acu-Link.com,2013-03-08 18:38:00,
2013-03-08 13:54:00,41.5,33.8,29.99,SE,135,13.5,-999.0,74,-99.99,,,0.02,Acu-Link.com,2013-03-08 18:54:00,
2013-03-08 14:09:00,41.5,33.2,29.99,ENE,67,9.4,-999.0,72,-99.99,,,0.02,Acu-Link.com,2013-03-08 19:09:00,
2013-03-08 14:24:00,41.7,33.0,29.99,NW,315,6.3,-999.0,71,-99.99,,,0.02,Acu-Link.com,2013-03-08 19:24:00,
2013-03-08 14:40:00,41.7,33.0,29.99,NW,315,8.3,-999.0,71,-99.99,,,0.02,Acu-Link.com,2013-03-08 19:40:00,
2013-03-08 14:55:00,41.9,33.5,30.00,North,0,7.8,-999.0,72,-99.99,,,0.02,Acu-Link.com,2013-03-08 19:55:00,
2013-03-08 15:10:00,41.9,33.5,30.00,SE,135,5.8,-999.0,72,-99.99,,,0.02,Acu-Link.com,2013-03-08 20:10:00,
2013-03-08 15:25:00,41.9,33.5,30.01,NNE,22,7.3,-999.0,72,-99.99,,,0.02,Acu-Link.com,2013-03-08 20:25:00,
2013-03-08 15:40:00,41.9,33.2,30.01,NNW,337,5.3,-999.0,71,-99.99,,,0.02,Acu-Link.com,2013-03-08 20:40:00,
2013-03-08 15:55:00,42.3,33.6,30.01,North,0,5.8,-999.0,71,-99.99,,,0.02,Acu-Link.com,2013-03-08 20:55:00,
2013-03-08 16:10:00,43.2,34.8,30.00,West,270,10.9,-999.0,72,-99.99,,,0.02,Acu-Link.com,2013-03-08 21:10:00,
2013-03-08 16:25:00,41.9,33.5,30.01,NE,45,8.3,-999.0,72,-99.99,,,0.02,Acu-Link.com,2013-03-08 21:25:00,
2013-03-08 16:40:00,41.4,33.1,30.02,NNE,22,6.8,-999.0,72,-99.99,,,0.02,Acu-Link.com,2013-03-08 21:40:00,
2013-03-08 16:56:00,41.4,33.4,30.02,ESE,112,5.8,-999.0,73,-99.99,,,0.02,Acu-Link.com,2013-03-08 21:56:00,
2013-03-08 17:11:00,41.4,34.1,30.02,NNE,22,6.8,-999.0,75,-99.99,,,0.02,Acu-Link.com,2013-03-08 22:11:00,
2013-03-08 17:26:00,41.5,33.5,30.03,NNW,337,4.7,-999.0,73,-99.99,,,0.02,Acu-Link.com,2013-03-08 22:26:00,
2013-03-08 17:41:00,41.4,33.7,30.04,NNE,22,4.2,-999.0,74,-99.99,,,0.02,Acu-Link.com,2013-03-08 22:41:00,
2013-03-08 17:56:00,41.5,33.5,30.05,NNW,337,8.3,-999.0,73,-99.99,,,0.02,Acu-Link.com,2013-03-08 22:56:00,
2013-03-08 18:11:00,41.4,34.1,30.07,North,0,5.8,-999.0,75,-99.99,,,0.02,Acu-Link.com,2013-03-08 23:11:00,
2013-03-08 18:26:00,41.4,34.1,30.08,SW,225,5.8,-999.0,75,-99.99,,,0.02,Acu-Link.com,2013-03-08 23:26:00,
2013-03-08 18:41:00,41.0,34.0,30.09,East,90,6.8,-999.0,76,-99.99,,,0.02,Acu-Link.com,2013-03-08 23:41:00,
2013-03-08 18:56:00,41.2,33.9,30.10,ENE,67,5.3,-999.0,75,-99.99,,,0.02,Acu-Link.com,2013-03-08 23:56:00,
2013-03-08 19:12:00,41.2,33.6,30.12,West,270,6.3,-999.0,74,-99.99,,,0.02,Acu-Link.com,2013-03-09 00:12:00,
2013-03-08 19:27:00,41.2,33.9,30.12,NNW,337,3.7,-999.0,75,-99.99,,,0.02,Acu-Link.com,2013-03-09 00:27:00,
2013-03-08 19:42:00,41.2,33.9,30.13,ENE,67,5.3,-999.0,75,-99.99,,,0.02,Acu-Link.com,2013-03-09 00:42:00,
2013-03-08 19:57:00,41.2,33.9,30.13,NE,45,4.7,-999.0,75,-99.99,,,0.02,Acu-Link.com,2013-03-09 00:57:00,
2013-03-08 20:12:00,41.2,33.9,30.13,West,270,4.7,-999.0,75,-99.99,,,0.02,Acu-Link.com,2013-03-09 01:12:00,
2013-03-08 20:27:00,41.0,33.7,30.13,East,90,6.3,-999.0,75,-99.99,,,0.02,Acu-Link.com,2013-03-09 01:27:00,
2013-03-08 20:42:00,41.4,34.1,30.14,ENE,67,3.7,-999.0,75,-99.99,,,0.02,Acu-Link.com,2013-03-09 01:42:00,
2013-03-08 20:57:00,41.2,33.9,30.15,NNW,337,3.7,-999.0,75,-99.99,,,0.02,Acu-Link.com,2013-03-09 01:57:00,
2013-03-08 21:12:00,41.2,33.9,30.15,WNW,292,4.7,-999.0,75,-99.99,,,0.02,Acu-Link.com,2013-03-09 02:12:00,
2013-03-08 21:28:00,41.2,34.2,30.15,NNW,337,4.7,-999.0,76,-99.99,,,0.02,Acu-Link.com,2013-03-09 02:28:00,
2013-03-08 21:43:00,41.2,33.6,30.16,NW,315,3.7,-999.0,74,-99.99,,,0.02,Acu-Link.com,2013-03-09 02:43:00,
2013-03-08 21:58:00,41.0,33.4,30.17,West,270,4.7,-999.0,74,-99.99,,,0.02,Acu-Link.com,2013-03-09 02:58:00,
2013-03-08 22:13:00,41.2,32.9,30.17,WNW,292,4.2,-999.0,72,-99.99,,,0.02,Acu-Link.com,2013-03-09 03:13:00,
2013-03-08 22:28:00,41.0,32.7,30.17,West,270,4.7,-999.0,72,-99.99,,,0.02,Acu-Link.com,2013-03-09 03:28:00,
2013-03-08 22:43:00,41.0,32.0,30.17,North,0,3.7,-999.0,70,-99.99,,,0.02,Acu-Link.com,2013-03-09 03:43:00,
2013-03-08 22:58:00,40.8,32.5,30.18,NNE,22,5.3,-999.0,72,-99.99,,,0.02,Acu-Link.com,2013-03-09 03:58:00,
2013-03-08 23:13:00,40.3,33.0,30.17,WNW,292,3.7,-999.0,75,-99.99,,,0.02,Acu-Link.com,2013-03-09 04:13:00,
2013-03-08 23:28:00,39.9,32.6,30.17,North,0,6.3,-999.0,75,-99.99,,,0.02,Acu-Link.com,2013-03-09 04:28:00,
2013-03-08 23:44:00,40.1,32.8,30.17,West,270,6.3,-999.0,75,-99.99,,,0.02,Acu-Link.com,2013-03-09 04:44:00,
2013-03-08 23:59:00,40.3,32.3,30.17,North,0,6.8,-999.0,73,-99.99,,,0.02,Acu-Link.com,2013-03-09 04:59:00,